顯示廣告
隱藏 ✕
※ 本文為 graynoah 轉寄自 ptt.cc 更新時間: 2013-07-05 17:08:38
看板 sex
作者 sumade (斬卍凱蒂貓卍佛)
標題
 Re: [認真] 這個情境怎麼解?

時間 Fri Jul  5 14:49:43 2013


※ 引述《sumade (斬卍凱蒂貓卍佛)》之銘言:
: 噓 aqw445566:純噓,過150視野小,你確定你車踩得到150?              07/05 01:09
說真的  我真的不確定踩不踩得到150

不然這樣  你既然那麼嗆  我們來賭一下好了

找一天半夜  人車比較少  去中山高速公路踩踩看

只要時速沒超過150  就算我輸

但是如果不小心時速超過150了  那可就要算你輸


我知道你會說車子都快樂表  時速根本不準

那看你要用GPS測速  還是要用雷射槍  我都奉陪

如果運氣好  被警方認證到超速  警方用的測速槍  你總相信了吧

超速罰單寄來  時速150公里以上  罰單錢你出

不到150公里  罰單錢開多少  我就貼你多少錢


順便幫鄉民謀福利  暑假剛開始  不要賭太大  五十片雞排就好


我們在外插  輸的人去所在縣市最大的火車站門口  當眾打手槍


對了  為了賭注公正性  如果決定參賽  請先向板主繳納一千塊保證金


三個板主隨你選  我都OK的


我希望你既然敢嗆  就要有擔當一點

批踢踢一堆板  都說西斯盡是一些廢宅

男人什麼都可以輸  面子絕對不能輸

相信你也不希望被大家看不起

要是嗆一嗆  就躲起來裝沒看到  那就真的淪為大家的笑話

只要你出來面對  我相信大家一定對西斯板有不一樣的看法

等你回應


謝謝大家


(板主大人  此文乃為了重振西斯板風  一洗廢宅的刻板印象

 如果真的佔了西斯板面  麻煩告知一下  小弟一定速刪  不好意思  感恩  努力)

--
--
※ 發信站: 批踢踢實業坊(ptt.cc)
◆ From: 114.36.154.110
qoomaily:頭香 雞排+107/05 14:51
ntit5566:+107/05 14:51
funk167:推文07/05 14:52
sueangle:只好排隊領雞排了07/05 14:52
ggg4u:蘇美大 永遠是西施版的第一重砲手!07/05 14:52
sjbh:排隊領雞排+107/05 14:53
visvis:沙發07/05 14:53
mynthu:我是廢宅跟風領雞排07/05 14:54
dondon7939:雞排先排就對了07/05 14:54
v00001:排隊07/05 14:54
tetsuro:雞排+107/05 14:54
tino40carter:雞排+107/05 14:55
kiminliu:真男人,推文挺你!07/05 14:55
schlaf:雞排+107/05 14:55
tetsuro:其實要超過150真的不難 沒事嗆這個幹嘛07/05 14:55
how330:衝阿!!!!07/05 14:55
crazysinger:西斯點在哪???07/05 14:55
wingmouse:我待過國外 150是路上最慢的 人家都開200以上07/05 14:55
denny0225:我來了!07/05 14:55
kings0904:150其實不難07/05 14:55
marcohpsh:雞排+107/05 14:55
DOPAS:我愛蘇美大~07/05 14:55
kudoshaki:雞排謝謝07/05 14:56
purple1224:+107/05 14:56
weisenter:雞排++07/05 14:56
hamerer:推風老鼠大 150很難嗎...德國150絕對是開在外側07/05 14:56
granter:+1 排隊領雞排 不過 我想 會躲起來不敢回應07/05 14:56
hamerer:什麼阿里不達的車都可以從旁呼嘯而過07/05 14:57
rayallen3001:150..跟本沒什麼 某人要在車站前打手槍了07/05 14:57
daz:雞排+107/05 14:57
htaedamay:雞排+1+107/05 14:57
ray0215:+107/05 14:58
steve5:外插部份賭注有妨礙社會秩序維護法的問題喔...07/05 14:58
我不介意拿空氣槍打  重點是敢嗆也要敢面對
Speeded:雞排+107/05 14:58
Cervelo1995:呵呵! 我最喜歡這種文章了!07/05 14:58
fireda:又賭雞排?07/05 14:59
Gon:雞排+107/05 14:59
C2man:雞排+1 出戰記得吹號角07/05 14:59
supermanclkl:雞排加一07/05 14:59
polppk:++++07/05 14:59
Cervelo1995:可以選吃冰嗎? 最近這麼熱吃雞排不太好..07/05 14:59
※ 編輯: sumade          來自: 114.36.154.110       (07/05 15:00)
shay828:雞排1F 07/05 15:00
htaedamay:那打手槍學高義在紙箱裡好了2F 07/05 15:00
Unixsan12318:雞排+13F 07/05 15:00
Cervelo1995:結果戰神開雙B 或是 其他進口車, 輕鬆15格XDDD4F 07/05 15:00
a1052026:雞排+15F 07/05 15:00
john0312:+16F 07/05 15:00
atien666:沒梗到只能回這種推文了 科7F 07/05 15:01
mommomsun:戰神雞排怎能不吃++8F 07/05 15:01
mylove10936:雞排XD9F 07/05 15:01
DDI:++10F 07/05 15:01
schopan:150很難嗎  雞排++11F 07/05 15:01
ALEN1012:推戰神~ 雞排+1  不過對方開5566ID  應該也只有嘴而已12F 07/05 15:02
chenmengji:雞排+113F 07/05 15:02
jamescrw:+114F 07/05 15:02
ivesonion:雞排++15F 07/05 15:02
henryak:雞排++16F 07/05 15:03
morphyster:雞排+117F 07/05 15:03
ALEN1012:150不難 s40有踩上過18F 07/05 15:03
pei1129:雞排+119F 07/05 15:04
obrt15yi:教訓肥宅魯蛇我是沒意見 不過沒西施點20F 07/05 15:04
granter:150完全不難 再配合下坡路段 輕鬆到達21F 07/05 15:04
ricelong:+1+122F 07/05 15:04
zgbsfs:雞排 +23F 07/05 15:04
eddy830908:雞排雞排!!24F 07/05 15:05
ckgegg:今天的戰神又是戰力滿點 XDDDD25F 07/05 15:05
aa768e:推26F 07/05 15:05
joker6:雞排27F 07/05 15:05
pisces212:戰神雞排28F 07/05 15:06
michaeldada:軍車老天王星都可以踩到130  150隨便都可以踩到吧29F 07/05 15:06
VMX:雞排+130F 07/05 15:06
popsas01:欸欸~~拿椅子,快快快,我佔到位子了31F 07/05 15:06
curtcar:教訓的好32F 07/05 15:06
godcatmimi:雞排雞排33F 07/05 15:06
VTDR128:雞排++34F 07/05 15:07
redice933:雞排+1~~35F 07/05 15:07
terry1957965:雞排!36F 07/05 15:07
germ611:150不難,以前不怕死在國三高雄踩到200,開saab90037F 07/05 15:08
germ611:不過那時沒gps,是不是快樂表就不知道了
peace1way:近十年內出的國產車,1600以上的,敢踩就一定上得了15039F 07/05 15:08
iverlung:雞排+111111111111             耶40F 07/05 15:08
qscxz:雞排啦!!!!!!41F 07/05 15:08
aerg:領雞排+++++++++42F 07/05 15:09
aerg:西斯點=打手槍
findinglouis:雞排雞排!!44F 07/05 15:09
e33195:雞排+145F 07/05 15:09
gungunit:不過他只說「你確定?」而已耶 又沒說「你又踩不到150」46F 07/05 15:10
kf128708:雞排++47F 07/05 15:11
banzai221:無聊48F 07/05 15:11
qj6wl6:排隊~~49F 07/05 15:11
RSTARRSTAR:推!!在爆一次吧50F 07/05 15:11
Hambowbow:無聊51F 07/05 15:12
geoyao:車子對方提供嗎?????????????????52F 07/05 15:12
gogoegg:會去質疑國產車開不到150(GPS速度) 肯定是鍵盤車手53F 07/05 15:12
xshane831:戰神推一個 我家的破camry都被我踩到125過了54F 07/05 15:12
sibin:雞排+++++55F 07/05 15:12
too2000000:雞排要切不辣+++++56F 07/05 15:13
foster0905:雞排++57F 07/05 15:13
kiriru:排隊領雞排啊58F 07/05 15:13
andygood88:開朋友的10年k8,車上載四個人還是可以59F 07/05 15:14
letitflame:+160F 07/05 15:14
arthur85422:雞排++61F 07/05 15:14
GF:排隊領雞排62F 07/05 15:15
gemini6479:喔喔喔!雞排++63F 07/05 15:15
promaou:排隊64F 07/05 15:15
mycity:150真的不難 幾年內的車 除了會飄的款式之外XD65F 07/05 15:15
xxp680:家裡toyota老車我都開過160了...66F 07/05 15:15
TZUKI:++67F 07/05 15:15
fuan791013:加壹68F 07/05 15:15
geoyao:是台中到苗栗那段上坡嗎?69F 07/05 15:16
white7611:雞排+170F 07/05 15:16
jasongo:想也知道出一張嘴不敢面對XDXD71F 07/05 15:17
peter791130:雞排卡位一下72F 07/05 15:17
Sandypa1:+173F 07/05 15:17
liman:我要雞排74F 07/05 15:17
biingru:+1 讚75F 07/05 15:17
drbala:推戰神!!!!!!76F 07/05 15:18
nvidia15:真男人!!77F 07/05 15:18
slayerchobit:雞排+178F 07/05 15:18
AEScabriolet:媽,我在這!79F 07/05 15:19
fusinshoujo:我要雞排+180F 07/05 15:19
ohsshhiitt:現在隨便一台國產車1.6以上都馬踩的到...81F 07/05 15:19
bonsori:雞排+182F 07/05 15:19
c780412:雞排雞排~~+++83F 07/05 15:19
xan1019:媽我在這裡84F 07/05 15:20
senghok:雞排+1~85F 07/05 15:20
blackyady:推蘇美大 未來老婆~ 我在這~~86F 07/05 15:21
milk7006:車子踩不到150還是車嗎 我150年的小K8都可以了XD87F 07/05 15:22
f051372:怎麼傻到嗆人家沒辦法15088F 07/05 15:22
EH19891110:戰神戰神   吃雞排啦!89F 07/05 15:23
biorad:騎重機破200才是爽90F 07/05 15:23
milk7006:噗 是15年打錯91F 07/05 15:23
KASIM78718:朝聖92F 07/05 15:23
icewindwu:蘇美,我加10塊炸雞(咦?有賭神的味道,樓下大幾塊?93F 07/05 15:23
d50752005:雞排~94F 07/05 15:23
stfranciss:排候補雞排+195F 07/05 15:24
svbigkick:150真的不難 我以前喜美可以拉到160就縮了96F 07/05 15:24
kevin52541:雞排+197F 07/05 15:24
blackyady:樓上大大150年的是什麼骨灰級車子啊...還可以開嗎98F 07/05 15:24
skjj8624:雞排++~99F 07/05 15:25
icewindwu:另外,西斯要變車板了嗎?100F 07/05 15:25
geoyao:0rz.tw/FjE9l <---我的神駒也可以150 (cm/hr)101F 07/05 15:25
sjory:排隊領雞排102F 07/05 15:25
chenyihfu123:幼稚 給箭頭103F 07/05 15:25
shaka1217:我等雞排!!104F 07/05 15:25
flame2503:雞排105F 07/05 15:26
a100881:兇狠~~~~106F 07/05 15:26
kimgordon:不需要晚上吧 平常車況好 很容易就150了107F 07/05 15:27
Raskolnikov:呵呵 講這麼多 我猜蘇美最後還是不會出現吧108F 07/05 15:27
Quannon552:150視野也沒有小阿說真的...109F 07/05 15:27
lefthander:+1謝謝110F 07/05 15:27
yulunyeh:踩到150視野並不會變多小111F 07/05 15:28
AEScabriolet:我就是幼稚才會開150追你這麼久112F 07/05 15:28
Ianthegood:雞排!113F 07/05 15:29
Ogison:雞排+1114F 07/05 15:30
kg21dunk:====================雞排  別忘了我===================115F 07/05 15:30
kamison:雞排+1116F 07/05 15:31
yrre:雞排+1117F 07/05 15:31
lin740517:西斯點?118F 07/05 15:31
ualihlhie:超速罰單不是問題吧!小弟比較替戰神擔心的是公共危險罪119F 07/05 15:32
huang233:好久沒吃雞排+1120F 07/05 15:32
ericaiai:雞排+1121F 07/05 15:32
Raskolnikov:話說他在BG版嗆過這麼多人 有人看過他真面目?122F 07/05 15:32
nonotsai:雞排+1123F 07/05 15:33
g09130931:G排+1124F 07/05 15:34
theskyofblue:+1125F 07/05 15:34
Hawk123:http://ppt.cc/eGm6   踩一下就164了zzzzZZZZZZZZZZZZZ126F 07/05 15:34
SHONON:真男人!!!!!!!!!127F 07/05 15:34
asdbiy:+1128F 07/05 15:34
forever07:戰神129F 07/05 15:35
sorkayi:其實 150 並沒有這麼難@@130F 07/05 15:35
holybless:哇最近每天嗑一片131F 07/05 15:36
jackabc95175:雞排132F 07/05 15:37
baobomb:推推 雞排+1133F 07/05 15:37
ja10132:XDDD134F 07/05 15:38
mm0725mas:雞排!135F 07/05 15:38
Raskolnikov:根本在模糊焦點啊 有種插賭過150視野會不會變小啊136F 07/05 15:38
m90150213:+1137F 07/05 15:39
pipiorange:個人覺得過180才會....138F 07/05 15:39
handsomegod:神雞啊139F 07/05 15:40
alan1943:雞排++140F 07/05 15:40
amarni333:150根本沒很快啊,怎麼這也會吵起來~~141F 07/05 15:41
geniusjackie:無聊  當你個板?142F 07/05 15:42
amarni333:而且平常時段有一堆150了幹嘛等到半夜~~?143F 07/05 15:42
candyclub666:"你確定你車踩得到150?" 最後是賭這句沒錯...哭哭144F 07/05 15:42
a1052026:爆!145F 07/05 15:43
WithAnyway:戰神!!!戰神!!!146F 07/05 15:43
theskyofblue:G排++147F 07/05 15:43
jackleespp:雞排我可以148F 07/05 15:43
ak7788:只能推了149F 07/05 15:44
geoyao:我不知道150視野會不會變小,但我知道吃雞排的胃口會變小!150F 07/05 15:44
blissful:戰意十足151F 07/05 15:44
g24323128:雞排不切要辣152F 07/05 15:45
SaHEL11:推戰神阿153F 07/05 15:46
analyzer:要多高速下視野才會變小每個人感受不同154F 07/05 15:46
analyzer:人在新竹領得到雞排嗎
HAIWEI:我10年前騎FZR也騎到150過...156F 07/05 15:49
ProductionIG:想吃雞排157F 07/05 15:50
sqera:國產車150是到的瞭,但感覺車都快解體了,是我的車太爛嗎158F 07/05 15:51
mozo:視野又主觀變數又多的東西 是要賭啥視野159F 07/05 15:52
sam519:敢嗆得不敢面對了...歪風難重振160F 07/05 15:52
pepeoa:150蠻簡單的其實  那個人嗆得蠻無知的161F 07/05 15:53
Error999:干我屁事?162F 07/05 15:53
runslow:+1163F 07/05 15:54
charmyderek:鄉民說話會負責嗎 顆顆164F 07/05 15:55
hope399331:西施點呢?  這樣也能一篇?165F 07/05 15:55
fsac3:幫補血,戰神就是要給推166F 07/05 15:55
abcde0227:推推!雞排雞排!!167F 07/05 15:56
everforwind:出來面對阿168F 07/05 15:56
four26:150視野會變很小? 哈哈哈哈169F 07/05 15:56
sammy615302:+1170F 07/05 15:56
venroxas:戰神再進化171F 07/05 15:57
daxer:只能推了 戰神今天又滿點172F 07/05 15:57
larfopinn:雞排雞排!這麼後面還有嗎173F 07/05 15:58
bye296lctc:5566輸定了 150超簡單的阿174F 07/05 15:58
Scaroftears:+1175F 07/05 15:59
b4561238:無聊...176F 07/05 15:59
RIVERWIND:150不難吧吧=   =之前兜風學姊踩一踩就15X177F 07/05 15:59
cookies0310:幼稚178F 07/05 16:00
pandayu:150真的不難踩,那個嗆的太衝動了吧179F 07/05 16:01
jenny80221:跟不到雞排啊!!!!!!!!!!!!!!!!!!!!!!!!!!180F 07/05 16:01
jerk0204:推! 敢嘲諷鄉民就要有坦怪的心理準備!181F 07/05 16:03
jerry917:嗆的人是沒開過車逆 150哥隨便踩都馬有......182F 07/05 16:03
forlorn1127:雞排+1!183F 07/05 16:03
bye296lctc:看來只能祈禱蘇美大的車是tube 保證樂勝184F 07/05 16:04
n963k:蘇美,lol185F 07/05 16:04
balcon:150真的沒甚麼,阿宅還在二輪階段吧186F 07/05 16:05
rogerliu0916:雞排+++++++++++++187F 07/05 16:05
adapu:違反交通規則和危險 版主不管的嗎188F 07/05 16:06
sanxiao:aqw不要再裝死了189F 07/05 16:06
kazff:重振西斯雄風190F 07/05 16:07
sd131420:領雞排啦191F 07/05 16:07
r66442001:雞排+1192F 07/05 16:07
Zenxiety:不要起鬨拉 我還想看大大戰公主病患者193F 07/05 16:08
ac97631:+1194F 07/05 16:09
KOBEFANS:一般國產車其實也可以到150,apw445566穩輸的195F 07/05 16:10
soga0309:還來得及+1嗎196F 07/05 16:12
JustStarBuck:雞排197F 07/05 16:12
silentduke:+1 雞排198F 07/05 16:13
wwwppt:+1 雞排199F 07/05 16:13
a032100:我家十幾年的霹靂馬 都可以120了 150隨便都上吧200F 07/05 16:15
ding94xu04:雞排+1201F 07/05 16:16
mephisepalm:雞排++202F 07/05 16:17
schopan:蘇美大請你仔細看  A大噓文有兩句話203F 07/05 16:17
schopan:第一句嗆你是不是幻想150  第二句教你甚麼才是150
schopan:A大是覺得150視野不小  會小是因為不常達到速度
schopan:請蘇美大踩個100次就會改觀來修文了
schopan:不必要只針對第一句話插賭
schopan:要嘛就兩句一起看  150踩個100次是不是視野就會開闊了
AVK:雞排+1209F 07/05 16:20
jerrysu74:Aqw445566出來面對!!210F 07/05 16:21
s952699:10年內國產車 車況正常 隨便採都有150...211F 07/05 16:22
genegene:吵這個幹嘛?  戰鬥服系列文還比較吸引我勒!212F 07/05 16:23
boogieman:雞排+1213F 07/05 16:23
powmien:push214F 07/05 16:24
ishoudar:就是這樣啊  別龜縮起來當龜兒子阿215F 07/05 16:25
bnnann:雞排+1216F 07/05 16:26
Foot:請雞排可以 可是可以不要打手槍嗎? 妨害風化到時候爆出ptt217F 07/05 16:27
Foot:大家都倒楣
rayallen3001:雞排+1219F 07/05 16:28
jpd:雞排耶XD220F 07/05 16:28
Raskolnikov:他是看準人家不會出面才敢這樣賭吧~221F 07/05 16:28
a010380:+222F 07/05 16:28
Orz9106:想也知道不可能打手槍阿 打手槍比較丟臉還是裝俗辣比較丟223F 07/05 16:29
majajami:衝著雞排+1!!!!!!224F 07/05 16:29
schopan:不是看人家不敢出面賭  是挑對自己有利的賭  150很難嗎225F 07/05 16:29
z2rxiidil:雖然150真的很簡單  不過單純噓你~226F 07/05 16:30
kiezdi:雞排雞排!!!227F 07/05 16:30
schopan:怎麼人家第二句噓文就殿殿不回228F 07/05 16:30
kalaggpon:G排+++++++++++y229F 07/05 16:30
fenriy:說真的大概要到180以上視野才會明顯有變化把...230F 07/05 16:31
wommow:sumade 向您申請決鬥。  確定[y/N] __231F 07/05 16:32
bebehome:150小意思,雞排+1232F 07/05 16:32
jeoca:雞排~+1233F 07/05 16:33
z14753:雞排+1234F 07/05 16:33
laal:洗版風XSSSS235F 07/05 16:33
wayi0421:G排236F 07/05 16:33
kofcu:推真男人! 排隊等雞排 +1237F 07/05 16:35
qwer1988:150錯了嗎238F 07/05 16:36
jeffofpower:雞排卡位+1239F 07/05 16:36
DevilEnvy:開戰囉!!240F 07/05 16:37
suckdickman:要就去五楊段比241F 07/05 16:38
WlshCloud:雞排+1   嗆150是沒開過車嗎.....隨便都超過242F 07/05 16:38
alexyen0606:雞排+1243F 07/05 16:38
kofcu:150真的隨便踩都有 我的18年三菱老房車都可以到160了...244F 07/05 16:39
jiejar:雞排+1245F 07/05 16:39
suckdickman:鍵盤車手又出動了,大家都隨便160246F 07/05 16:40
kofcu:那我們來插雞排~247F 07/05 16:42
BYLAME:雞排+1248F 07/05 16:42
ufb04307:雞排+1249F 07/05 16:44
f4umoe:雞排 +1250F 07/05 16:45
darkcola:雞排251F 07/05 16:45
DUCK3210:雞排 +1252F 07/05 16:46
kofcu:吸屌男~我們來加碼吧?????????????????????????????253F 07/05 16:47
shiensr:雞排+1254F 07/05 16:48
minter:我也踩過一百五 覺得好快好可怕 趕快慢下來255F 07/05 16:49
dvd4120:朝聖!256F 07/05 16:50
hn921:要賭也要看東西賭 為什麼要賭這種違法的事情 真無聊257F 07/05 16:50
vendetta001:都沒有人直接END嗎258F 07/05 16:51
schopan:這篇越看戰神真是越弱  單挑第一句嗆  好歹說個160讓他259F 07/05 16:52
kylecheng:我也想要雞排QQ260F 07/05 16:52
schopan:不知道的人還真的以為你覺得150很難  所以150就夠了261F 07/05 16:52
giadruu:雞排+1262F 07/05 16:53
YU0158:我想看蘇美尻263F 07/05 16:53
shihyao001:雞排+1264F 07/05 16:53
kofcu:吸屌男~我們來插100片雞排好嗎?  請別裝作沒看見阿 @@265F 07/05 16:54
akira1013:只有腳踏車是要比甚麼150XD266F 07/05 16:56
zmack0905:雞排+1267F 07/05 16:57
shamanlin:為什麼會有人覺得車子飆到150很難,還是他說的是機車?268F 07/05 16:57
cakin:XDDDDD269F 07/05 17:00
holik0123:+1270F 07/05 17:00
calvin543:雞排+1271F 07/05 17:01
thetakerone:雞排+1272F 07/05 17:01
kimi1:XD 雞排+1273F 07/05 17:03
MadeInChina:機車到150我也騎過 不會難啊 250CC催一下就到了274F 07/05 17:03
lupinyoyo:推一下275F 07/05 17:06
wenlu:無聊當有趣276F 07/05 17:06
SimonLi:危險駕駛不可長277F 07/05 17:07

--
※ 看板: graynoah 文章推薦值: 1 目前人氣: 0 累積人氣: 2889 
( ̄︶ ̄)b hippo916 說讚!
2樓 時間: 2013-07-06 23:04:23 (台灣)
  07-06 23:04 TW
剛剛上文忘了登入拍謝
e)編輯 d)刪除 ^x)轉錄 同主題: =)首篇 [)上篇 ])下篇